RH
48 46 51 52 52 58 63 70 70 74 74 99 94 98 90 87 82 78 78 70 73 72 72 68 71 72 74 75 75 73 70 71 72 72 69 74 75 75
51 53 57 63 59 69 80 83 84 85 83 85 88 88 86 89 85 81 93 96 87 94 92 98 99 92 93 94 97 98 96 85 75 85 92 74 72 80
68 66 68 74 76 86 95 95 93 97 100 93 88 99 93 89 98 100 100 99 96 98 95 96 93 93 91 89 87 93 91 98 100 100 98 97 99 100
82 82 81 92 89 96 96 94 92 90 90 89 87 93 96 98 96 92 100 85 98 98 100 98 98 84 88 87 85 85 87 92 97 100 99 95 92 91
86 89 73 86 85 89 87 86 87 87 88 89 97 99 89 82 85 95 98 98 100 100 100 100 100 99 99 100 99 98 96 98 98 91 92 96 97 88
75 79 84 88 90 91 87 87 83 79 87 94 98 90 90 93 94 100 100 100 100 100 100 100 100 100 100 100 99 86 86 88 80 56 44 55 52 42
80 94 90 98 92 83 84 79 88 80 81 84 88 82 93 99 100 100 100 100 99 100 100 100 100 100 98 86 78 78 74 62 49 43 40 39 37 36
99 100 100 94 88 89 96 95 89 87 85 87 94 100 100 100 100 99 99 100 100 100 100 99 92 75 68 66 70 66 59 49 46 45 45 42 40 38
100 99 99 100 100 100 99 97 91 84 85 99 99 100 97 92 74 63 66 57 57 65 65 69 66 62 57 53 50 50 51 52 51 51 49 46 41 30
100 100 99 98 100 99 100 96 72 65 63 74 73 61 51 47 44 43 42 41 42 42 43 44 50 56 53 52 55 58 59 59 58 56 48 34 24 20
100 100 99 99 100 99 99 90 51 43 44 42 41 40 40 39 38 39 44 46 45 42 37 36 39 45 47 48 56 61 66 64 52 40 32 26 25 25
100 100 100 100 100 100 99 77 48 45 41 42 43 43 41 39 38 38 41 41 30 23 36 30 26 26 28 42 56 64 53 46 45 36 33 35 34 32
100 100 99 100 100 99 98 78 48 42 41 42 45 46 43 38 36 37 42 36 24 18 20 20 20 20 21 24 25 27 31 39 36 39 40 39 36 35
96 94 94 100 99 99 87 64 51 47 48 44 48 49 42 36 36 43 40 26 18 18 20 21 23 24 26 29 32 38 41 40 42 42 41 40 41 40
97 95 67 80 98 93 63 63 66 78 71 51 53 51 40 37 43 44 26 18 19 21 23 25 28 29 33 38 41 42 40 45 45 43 42 46 44 41
92 83 63 56 57 62 72 75 90 96 86 67 78 49 39 41 49 31 19 19 22 25 28 29 31 35 40 42 45 47 52 52 48 44 43 45 51 50
82 82 73 65 64 74 88 97 98 97 95 96 61 43 41 50 41 24 21 25 27 30 34 36 36 41 44 46 57 68 62 57 58 56 50 43 46 50
72 85 90 93 94 96 97 97 98 98 98 92 51 44 50 51 30 23 26 29 32 35 38 43 46 50 51 54 58 62 66 62 60 62 60 52 44 51
71 70 72 84 95 97 99 97 97 97 98 82 50 47 55 44 26 26 32 35 37 39 46 49 49 53 52 57 62 72 70 76 69 66 66 68 64 60
75 77 72 72 76 92 97 98 98 98 98 90 58 53 56 36 28 32 37 41 41 45 49 51 61 58 64 71 73 90 88 82 79 73 66 62 63 64
71 80 81 83 78 78 91 97 98 98 98 96 69 58 56 35 31 36 41 45 46 53 53 56 65 70 75 79 84 83 87 88 84 81 79 71 65 60
60 72 94 100 100 84 80 96 97 96 97 97 92 75 57 33 34 38 44 49 56 58 61 66 76 84 85 81 80 81 78 74 79 78 78 80 80 79
49 57 77 100 100 93 85 90 96 96 96 97 96 83 72 33 37 43 48 53 58 62 66 76 91 92 90 84 80 80 79 75 71 66 62 67 71 75
Wind_Speed
10 9 9 8 6 6 5 4 3 4 5 9 7 6 7 10 10 11 10 8 9 10 11 11 11 11 11 10 11 12 12 13 13 14 18 18 17 18
10 10 9 9 8 7 6 6 4 5 5 7 7 10 8 9 9 9 8 8 8 8 9 4 6 9 10 8 10 13 12 13 12 11 12 16 19 16
10 9 8 7 7 8 7 7 8 7 8 8 9 8 9 10 7 6 9 9 10 10 10 8 10 9 8 11 12 11 13 13 15 14 5 4 2 3
11 9 9 7 5 5 6 8 11 11 12 12 13 13 11 9 9 11 11 10 11 8 8 11 10 10 11 12 12 12 14 14 17 4 6 8 8 9
14 14 10 9 7 6 6 8 10 10 10 12 11 10 10 12 14 14 11 12 11 6 8 9 11 12 12 12 12 11 10 7 6 6 5 4 7 8
15 12 9 9 9 9 8 9 10 11 11 11 11 11 13 14 15 11 10 10 7 8 8 8 10 11 12 10 10 7 3 4 5 5 4 3 4 5
15 12 8 8 6 6 7 9 10 9 9 11 12 12 11 9 9 8 6 8 7 7 7 7 8 8 8 6 5 5 5 6 5 5 7 8 10 11
14 10 8 8 6 7 7 7 6 7 10 11 10 9 8 7 5 4 6 7 6 7 7 6 5 4 4 5 5 7 8 8 8 10 11 13 15 16
11 11 9 8 8 7 7 6 7 5 4 5 6 6 4 3 3 3 3 2 0 1 3 4 5 6 7 8 9 9 10 10 12 13 15 17 18 19
10 10 10 9 9 9 7 5 3 3 5 6 6 6 5 5 4 3 1 1 3 4 5 6 7 8 9 10 10 11 12 12 14 15 16 18 17 17
11 11 11 10 10 9 7 4 4 6 8 8 7 6 5 3 2 1 3 5 7 7 8 9 8 8 9 10 12 12 11 11 15 16 16 16 16 16
10 11 11 9 10 9 7 6 6 6 6 5 4 2 1 1 2 3 5 7 8 8 6 7 9 8 5 7 8 9 12 13 14 15 15 15 15 16
7 8 9 10 12 10 8 7 7 6 5 4 3 2 2 3 4 5 7 8 9 8 9 9 8 8 7 8 10 12 13 13 13 13 14 14 15 15
7 6 7 10 11 10 9 9 8 6 6 5 4 4 4 5 5 6 8 9 8 7 7 8 8 8 8 9 9 9 11 12 12 11 13 14 15 14
7 5 6 7 9 10 10 8 8 9 7 6 6 6 6 5 6 8 9 8 8 8 8 9 9 9 9 9 9 10 10 9 11 12 13 14 15 13
6 6 7 8 9 9 8 8 10 10 8 8 7 7 6 7 7 8 8 8 8 8 9 9 9 9 9 8 8 8 9 8 12 14 15 12 11 14
5 6 8 8 8 9 9 9 10 10 10 9 7 8 7 7 8 8 7 7 8 9 9 10 11 8 6 6 6 8 9 10 13 16 17 15 11 13
5 6 7 8 9 8 8 7 7 8 9 6 7 7 7 8 8 8 7 7 8 9 8 8 6 6 5 5 6 7 8 11 12 12 15 18 15 12
9 8 7 7 7 8 8 7 7 7 8 5 8 8 8 8 8 7 7 8 9 8 7 7 4 3 2 3 3 8 10 11 11 10 12 14 17 15
14 11 10 10 9 10 10 9 9 9 9 7 8 8 8 8 8 7 7 7 8 7 6 5 4 6 6 6 4 3 8 10 12 15 17 16 15 14
17 16 14 12 14 13 11 10 10 10 10 9 8 8 9 9 8 7 7 8 8 7 5 3 3 5 5 6 4 2 2 7 12 15 18 21 22 23
17 17 17 15 14 14 15 12 10 11 10 10 9 9 10 10 9 8 7 8 8 6 4 3 3 4 6 6 6 7 9 10 10 13 13 15 18 21
19 17 15 18 17 13 14 14 13 11 11 11 10 10 11 11 9 8 8 6 5 4 4 2 1 6 7 7 10 10 13 17 21 23 21 20 16 17
Wind_Direction
228 238 248 256 262 262 254 237 197 171 174 175 205 232 263 265 278 276 278 276 290 291 288 294 289 294 296 300 295 293 294 297 295 304 309 309 308 310
236 238 251 257 261 260 246 238 231 229 210 216 236 283 281 276 277 294 295 294 298 295 291 301 291 306 303 308 323 317 319 307 298 308 329 313 308 303
234 244 244 255 261 260 255 254 253 251 253 260 286 293 291 287 295 282 304 301 311 316 308 300 302 295 302 311 314 304 318 317 313 305 315 314 80 152
240 241 244 250 263 262 252 254 254 255 260 270 272 276 281 282 276 287 286 297 297 298 269 294 280 294 288 297 297 300 304 305 305 304 299 290 254 276
244 251 251 243 249 247 246 260 265 260 263 265 271 271 280 283 278 280 271 269 286 266 261 260 276 285 296 297 298 301 304 310 339 339 350 305 290 298
252 255 251 241 242 234 241 255 254 260 262 259 258 268 283 276 266 268 265 273 261 267 262 266 272 278 290 292 297 310 301 296 323 355 11 353 326 317
252 249 241 230 228 263 263 264 264 258 257 255 262 257 259 264 255 253 256 261 264 257 257 261 272 281 289 298 306 309 314 324 333 325 318 316 314 311
253 243 231 216 221 253 254 258 267 264 258 252 234 244 248 244 232 242 249 246 252 261 262 271 273 274 288 301 304 308 315 316 311 309 309 310 310 308
234 227 214 211 215 243 252 259 299 265 241 202 215 218 208 191 147 117 129 116 101 294 278 277 275 280 285 291 294 297 298 298 301 303 304 306 307 306
222 214 209 211 221 247 240 259 251 187 157 152 157 153 138 133 126 112 89 347 325 294 298 289 279 275 279 280 284 285 289 295 298 300 303 305 306 306
221 213 210 213 225 238 229 215 181 156 140 134 133 129 124 119 103 7 329 317 313 303 295 293 289 286 284 277 271 278 291 296 304 305 307 308 308 308
210 208 208 213 222 232 217 196 185 168 155 150 147 139 113 343 314 308 310 312 311 309 300 303 299 300 294 278 273 280 291 296 302 306 306 308 309 308
188 194 203 206 213 226 197 189 189 187 183 195 208 232 276 295 303 310 313 313 309 298 297 304 300 300 289 285 287 288 293 298 302 301 303 308 308 309
176 185 196 203 213 196 181 190 194 192 210 228 247 274 295 302 306 312 315 315 313 307 304 304 305 302 298 295 291 288 294 297 299 304 310 310 311 311
175 178 173 172 177 177 187 192 202 211 222 252 266 285 293 295 302 309 311 312 311 310 309 308 308 307 305 302 302 297 302 291 291 305 320 321 317 311
180 175 174 175 179 185 196 213 235 230 222 248 268 279 280 286 300 310 311 313 311 312 309 308 310 308 303 301 298 295 303 301 300 309 315 322 317 312
185 185 187 194 204 220 235 244 244 232 227 243 267 274 277 290 305 309 310 309 309 313 309 307 311 310 299 291 290 296 302 303 312 321 322 325 332 316
210 209 212 220 228 231 235 237 242 244 240 233 270 271 276 289 298 299 299 302 307 309 303 304 307 314 300 289 291 287 300 319 331 331 326 327 331 321
229 230 233 238 235 227 235 244 247 249 244 237 266 262 269 285 290 289 294 299 305 299 291 298 302 307 296 328 305 315 330 338 344 347 346 348 341 341
255 250 249 244 242 236 238 245 253 254 252 242 261 258 268 277 277 281 289 292 300 301 289 287 300 323 348 356 8 356 338 347 349 347 344 343 342 350
254 257 265 262 245 236 240 246 249 252 255 254 250 254 266 271 267 270 278 286 298 296 287 287 305 324 335 339 341 3 357 339 333 335 334 331 332 328
254 255 253 255 258 243 233 239 243 250 256 262 244 248 261 262 257 264 269 268 274 282 289 319 338 338 327 327 328 327 321 316 316 316 324 330 321 312
256 255 254 244 249 248 232 236 242 251 256 258 245 241 255 251 250 251 258 269 276 271 283 303 307 316 321 333 330 324 321 318 319 320 319 327 322 316